STARLINK AJ

Last updated on June 19, 2020, 12:02 a.m. UTC

1 45762U 20038AJ  20170.75001157  .00112731  11274-4  14001-3 0  9996
2 45762  52.9996 271.8081 0111430  69.5366 147.4747 15.96139419  1955

Satellite is not in orbit.